TimeCST,TemperatureF,Dew PointF,Humidity,Sea Level PressureIn,VisibilityMPH,Wind Direction,Wind SpeedMPH,Gust SpeedMPH,PrecipitationIn,Events,Conditions,WindDirDegrees,DateUTC
12:52 AM,28.0,24.1,85,30.42,10.0,SE,4.6,-,N/A,,Clear,140,2013-01-18 06:52:00
1:52 AM,30.9,25.0,79,30.41,10.0,SSE,4.6,-,N/A,,Clear,150,2013-01-18 07:52:00
2:52 AM,30.9,25.0,79,30.40,10.0,SE,4.6,-,N/A,,Clear,130,2013-01-18 08:52:00
3:52 AM,32.0,26.1,79,30.38,10.0,ESE,5.8,-,N/A,,Clear,120,2013-01-18 09:52:00
4:52 AM,30.0,25.0,82,30.36,10.0,SE,6.9,-,N/A,,Clear,140,2013-01-18 10:52:00
5:52 AM,30.9,25.0,79,30.35,10.0,SE,4.6,-,N/A,,Clear,140,2013-01-18 11:52:00
6:52 AM,30.0,24.1,79,30.35,10.0,ESE,5.8,-,N/A,,Clear,120,2013-01-18 12:52:00
7:52 AM,32.0,26.1,79,30.33,10.0,SE,5.8,-,N/A,,Clear,130,2013-01-18 13:52:00
8:52 AM,39.0,28.9,67,30.31,10.0,SSW,11.5,19.6,N/A,,Clear,200,2013-01-18 14:52:00
9:52 AM,44.1,28.9,55,30.28,10.0,SSW,17.3,28.8,N/A,,Clear,200,2013-01-18 15:52:00
10:52 AM,50.0,30.0,46,30.25,10.0,SSW,18.4,27.6,N/A,,Clear,200,2013-01-18 16:52:00
11:52 AM,53.1,28.9,40,30.20,10.0,SW,23.0,35.7,N/A,,Clear,220,2013-01-18 17:52:00
12:52 PM,55.9,28.9,36,30.14,10.0,SSW,25.3,35.7,N/A,,Clear,210,2013-01-18 18:52:00
1:52 PM,57.0,30.0,36,30.12,10.0,SSW,20.7,35.7,N/A,,Clear,210,2013-01-18 19:52:00
2:52 PM,60.1,30.0,32,30.08,10.0,SSW,25.3,31.1,N/A,,Clear,210,2013-01-18 20:52:00
3:52 PM,60.1,28.9,31,30.06,10.0,SW,18.4,35.7,N/A,,Clear,230,2013-01-18 21:52:00
4:52 PM,57.0,28.9,34,30.08,10.0,SW,17.3,28.8,N/A,,Clear,220,2013-01-18 22:52:00
5:52 PM,53.1,28.9,40,30.09,10.0,SSW,10.4,-,N/A,,Clear,210,2013-01-18 23:52:00
6:52 PM,52.0,28.9,41,30.08,10.0,South,12.7,20.7,N/A,,Clear,190,2013-01-19 00:52:00
7:52 PM,51.1,28.9,43,30.09,10.0,SSW,12.7,21.9,N/A,,Clear,200,2013-01-19 01:52:00
8:52 PM,46.0,28.9,51,30.08,10.0,South,9.2,-,N/A,,Clear,180,2013-01-19 02:52:00
9:52 PM,46.0,28.9,51,30.06,10.0,SSW,15.0,21.9,N/A,,Clear,200,2013-01-19 03:52:00
10:52 PM,45.0,28.9,53,30.05,10.0,SSW,12.7,-,N/A,,Clear,200,2013-01-19 04:52:00
11:52 PM,45.0,28.9,53,30.03,10.0,SSW,10.4,-,N/A,,Clear,200,2013-01-19 05:52:00